User: anonymous   Login
Location: Unspecified
(0.0000°N, 0.0000°E)
Time: 07:01:19
(UTC+00:00)
Language:

COMPASS 1 - Orbit

View from above orbital plane
View from above orbital plane
View from above satellite
View from above satellite

Ground track
Ground track

The orbit data is extracted from the following two-line orbital elements,

1 32787U 08021E   19049.93340388 +.00000506 +00000-0 +53476-4 0  9999
2 32787 097.5134 067.1999 0011013 251.4142 108.5882 14.93256447586729
Epoch (UTC): 18 February 2019 22:24:06
Eccentricity: 0.0011013
inclination: 97.5134°
perigee height: 580 km
apogee height: 595 km
right ascension of ascending node: 67.1999°
argument of perigee: 251.4142°
revolutions per day: 14.93256447
mean anomaly at epoch: 108.5882°
orbit number at epoch: 58672

The dashed part of the orbit path shows where the satellite is in the earth's shadow,  

DLR